User: anonymous   Login
Location: Unspecified
(0.0000°N, 0.0000°E)
Time: 04:55:31
(UTC+00:00)
Language:

SPROUT - Orbit

View from above orbital plane
View from above orbital plane
View from above satellite
View from above satellite

Ground track
Ground track

The orbit data is extracted from the following two-line orbital elements,

1 39770U 14029E   18350.88742936  .00000710  00000-0  85191-4 0  9992
2 39770  97.8802  90.5055 0008606 337.4594  22.6220 14.87101703247516
Epoch (UTC): 16 December 2018 21:17:53
Eccentricity: 0.0008606
inclination: 97.8802°
perigee height: 601 km
apogee height: 613 km
right ascension of ascending node: 90.5055°
argument of perigee: 337.4594°
revolutions per day: 14.87101703
mean anomaly at epoch: 22.6220°
orbit number at epoch: 24751

The dashed part of the orbit path shows where the satellite is in the earth's shadow,  

DLR